User: anonymous   Login
Location: Lawrence
(38.9720°N, 95.2350°W)
Time: 17:16:48
(UTC-05:00)
Language:

JAS-1B - Orbit

View from above orbital plane
View from above orbital plane
View from above satellite
View from above satellite

Ground track
Ground track

The orbit data is extracted from the following two-line orbital elements,

1 20480U 90013C   17289.23461363 -.00000061  00000-0 -71469-4 0  9992
2 20480  99.0712  39.8415 0540886 116.9044 248.8376 12.83417378297257
Epoch (UTC): 16 October 2017 05:37:50
Eccentricity: 0.0540886
inclination: 99.0712°
perigee height: 911 km
apogee height: 1744 km
right ascension of ascending node: 39.8415°
argument of perigee: 116.9044°
revolutions per day: 12.83417378
mean anomaly at epoch: 248.8376°
orbit number at epoch: 29725

The dashed part of the orbit path shows where the satellite is in the earth's shadow,  

DLR